C/2002 P1 ( NEAT )

Japanese version
Home page
Updated on September 27, 2014

---------------------------------------------------------------------

* Profile

Discovery Date August 7, 2002
Magnitude 19.6 mag
Discoverer Near-Earth-Asteroid Tracking Team (Jet Propulsion Laboratory)

* Orbital Elements

Epoch 2001 Nov. 27.0 TT = JDT 2452240.5
T 2001 Nov. 23.60351 TT                                 MPC
q   6.5308090            (2000.0)            P               Q
z  +0.0023782      Peri.  347.80144     +0.50511080     +0.74790147
 +/-0.0000084      Node   310.67275     -0.73641607     +0.11324908
e   0.9844682      Incl.   34.60245     -0.45006050     +0.65407801

* Finding Charts

* Magnitudes Graph

        m1 = 6.5 + 5 log d + 10.0 log r

---------------------------------------------------------------------

The orbital elements are published on M.P.E.C. 2003-N25.
The charts are made with StellaNavigator Ver.2.0 for Windows (AstroArts / ASCII).
The magnitudes graphs are made with Comet for Windows.

---------------------------------------------------------------------

Copyright(C) Seiichi Yoshida (comet@aerith.net). All rights reserved.